Hourly Data Report for July 10, 2017

All times are specified in Local Standard Time (LST). Add 1 hour to adjust for Daylight Saving Time where and when it is observed.

LUTSELK'E CS
NORTHWEST TERRITORIES

62°24'56.030" N
110°41'25.070" W
178.90 m
220L002
71529
XLU

Download Data

Hourly Data (July 2017)
Hourly Data Report for July 10, 2017
Temp Definition
°C
Dew Point Temp Definition
°C
Rel Hum Definition
%
Wind Dir Definition
10's deg

Wind Spd Definition
km/h
Visibility Definition
km
Stn Press Definition
kPa
Hmdx Definition


Wind Chill Definition


Weather Definition


TIME
00:00 18.7 8.0 50 LegendMM LegendMM   98.97     LegendNANA
01:00 19.2 8.7 51 LegendMM LegendMM   98.97     LegendNANA
02:00 17.8 8.9 56 LegendMM LegendMM   98.97     LegendNANA
03:00 17.8 5.8 45 LegendMM LegendMM   98.95     LegendNANA
04:00 17.6 7.4 51 LegendMM LegendMM   98.95     LegendNANA
05:00 18.6 10.5 59 LegendMM LegendMM   98.97     LegendNANA
06:00 19.9 10.0 53 LegendMM LegendMM   98.96     LegendNANA
07:00 21.0 7.8 42 LegendMM LegendMM   98.98     LegendNANA
08:00 23.0 8.6 40 LegendMM LegendMM   99.00     LegendNANA
09:00 25.1 7.9 34 LegendMM LegendMM   99.01 25   LegendNANA
10:00 25.7 6.2 29 LegendMM LegendMM   99.01 25   LegendNANA
11:00 27.0 5.3 25 LegendMM LegendMM   99.00 26   LegendNANA
12:00 27.4 6.7 27 LegendMM LegendMM   98.98 27   LegendNANA
13:00 27.6 7.4 28 LegendMM LegendMM   98.98 28   LegendNANA
14:00 27.6 9.0 31 LegendMM LegendMM   98.97 28   LegendNANA
15:00 27.7 8.8 31 LegendMM LegendMM   98.97 28   LegendNANA
16:00 26.7 10.3 36 LegendMM LegendMM   98.95 28   LegendNANA
17:00 26.0 9.3 35 LegendMM LegendMM   98.94 27   LegendNANA
18:00 25.0 10.6 41 LegendMM LegendMM   98.94 27   LegendNANA
19:00 25.1 10.1 39 LegendMM LegendMM   98.93 26   LegendNANA
20:00 23.2 10.8 45 LegendMM LegendMM   98.96 25   LegendNANA
21:00 22.3 10.0 45 LegendMM LegendMM   99.00     LegendNANA
22:00 20.5 10.6 53 LegendMM LegendMM   99.04     LegendNANA
23:00 21.6 7.2 40 LegendMM LegendMM   99.05     LegendNANA

Notes on Data Quality.

Legend

  • E = Estimated
  • M = Missing
  • NA = Not Available
  • ‡ = Partner data that is not subject to review by the National Climate Archives
Date modified: